カタログに戻る

STARLINK-5584

運用中通信VLEO
NORAD 55769·PAYLOAD·🇺🇸 United States

打ち上げ Mar 3, 2023 から Vandenberg Space Force Base

Loading…

次のパス (今後24時間)

TLE

最新Source: CelesTrak SupGP

元期: Sep 15, 2026, 02:06 UTC

1 55769C 23028AE  26258.08798611  .00000913  00000+0  76489-4 0  2588
2 55769  69.9997 106.9751 0002780 275.7900  15.3371 14.98335864    11

AllMySatでSTARLINK-5584をリアルタイム追跡

Download on the App Store